When you browse on this site, cookies collect data to enhance your experience and personalize the content and advertising you see.
Visit our Privacy Policy to learn more. By continuing to use the site, you agree to this use of cookies and data.
  • en France
  • Liste des pays
  • À 7 jours
  • Température de l'eau
  • Carte satellitaire
  • Carte météo
  • Widgets météo
  • user-avatar
    Se connecter

    Météo par heure à Bugojno

    Ce jour, 25 Mai, Samedi

    Heure Température Précipitation Vent Pression Humidité
    00:00 +10°C° 0 mm 1 m/s 709 mmHg 91%
    01:00 +10°C° 0 mm 1 m/s 708 mmHg 90%
    02:00 +10°C° 0 mm 1 m/s 709 mmHg 89%
    03:00 +9°C° 0 mm 1 m/s 709 mmHg 88%
    04:00 +9°C° 0 mm 1 m/s 709 mmHg 87%
    05:00 +11°C° 0 mm 1 m/s 709 mmHg 80%
    06:00 +14°C° 0 mm 1 m/s 710 mmHg 73%
    07:00 +16°C° 0 mm 1 m/s 710 mmHg 64%
    08:00 +19°C° 0 mm 1 m/s 711 mmHg 58%
    09:00 +20°C° 0 mm 1 m/s 711 mmHg 53%
    10:00 +22°C° 0 mm 1 m/s 711 mmHg 47%
    11:00 +22°C° 0 mm 1 m/s 711 mmHg 46%
    12:00 +23°C° 0 mm 1 m/s 711 mmHg 45%
    13:00 +24°C° 0 mm 1 m/s 711 mmHg 44%
    14:00 +24°C° 0 mm 1 m/s 711 mmHg 46%
    15:00 +23°C° 0 mm 1 m/s 711 mmHg 49%
    16:00 +23°C° 0 mm 1 m/s 711 mmHg 52%
    17:00 +21°C° 0.1 mm 1 m/s 710 mmHg 61%
    18:00 +19°C° 0.1 mm 1 m/s 710 mmHg 71%
    19:00 +16°C° 0.1 mm 1 m/s 710 mmHg 81%
    20:00 +15°C° 0 mm 1 m/s 710 mmHg 85%
    21:00 +14°C° 0 mm 1 m/s 710 mmHg 89%
    22:00 +13°C° 0 mm 1 m/s 711 mmHg 94%
    23:00 +13°C° 0 mm 1 m/s 711 mmHg 94%

    Demain, 26 Mai, Dimanche

    Heure Température Précipitation Vent Pression Humidité
    00:00 +13°C° 0 mm 1 m/s 711 mmHg 95%
    01:00 +13°C° 0 mm 1 m/s 710 mmHg 96%
    02:00 +12°C° 0 mm 1 m/s 710 mmHg 94%
    03:00 +12°C° 0 mm 1 m/s 710 mmHg 93%
    04:00 +12°C° 0 mm 1 m/s 710 mmHg 91%
    05:00 +14°C° 0 mm 1 m/s 710 mmHg 84%
    06:00 +15°C° 0 mm 1 m/s 710 mmHg 77%
    07:00 +18°C° 0 mm 1 m/s 711 mmHg 70%
    08:00 +20°C° 0 mm 1 m/s 711 mmHg 63%
    09:00 +21°C° 0 mm 1 m/s 711 mmHg 57%
    10:00 +23°C° 0 mm 1 m/s 711 mmHg 50%
    11:00 +23°C° 0 mm 1 m/s 711 mmHg 50%
    12:00 +23°C° 0 mm 1 m/s 711 mmHg 50%
    13:00 +23°C° 0 mm 1 m/s 711 mmHg 49%
    14:00 +23°C° 0 mm 2 m/s 711 mmHg 52%
    15:00 +23°C° 0 mm 2 m/s 711 mmHg 54%
    16:00 +23°C° 0 mm 2 m/s 711 mmHg 56%
    17:00 +20°C° 0.1 mm 2 m/s 710 mmHg 66%
    18:00 +20°C° 0.1 mm 1 m/s 710 mmHg 76%
    19:00 +18°C° 0.1 mm 1 m/s 710 mmHg 85%
    20:00 +16°C° 0.1 mm 1 m/s 710 mmHg 87%
    21:00 +16°C° 0.1 mm 1 m/s 710 mmHg 89%
    22:00 +15°C° 0.1 mm 1 m/s 710 mmHg 91%
    23:00 +15°C° 0 mm 1 m/s 710 mmHg 90%

    Après-demain, 27 Mai, Lundi

    Heure Température Précipitation Vent Pression Humidité
    00:00 +15°C° 0 mm 1 m/s 710 mmHg 89%
    01:00 +15°C° 0 mm 1 m/s 709 mmHg 88%
    02:00 +14°C° 0 mm 1 m/s 709 mmHg 88%
    03:00 +14°C° 0 mm 1 m/s 709 mmHg 89%
    04:00 +14°C° 0 mm 1 m/s 708 mmHg 89%
    05:00 +15°C° 0 mm 1 m/s 708 mmHg 86%
    06:00 +18°C° 0 mm 1 m/s 709 mmHg 82%
    07:00 +19°C° 0 mm 1 m/s 709 mmHg 79%
    08:00 +19°C° 0.2 mm 2 m/s 709 mmHg 76%
    09:00 +19°C° 0.2 mm 2 m/s 709 mmHg 74%
    10:00 +20°C° 0.2 mm 2 m/s 709 mmHg 72%
    11:00 +19°C° 0.3 mm 2 m/s 709 mmHg 75%
    12:00 +19°C° 0.3 mm 2 m/s 709 mmHg 78%
    13:00 +18°C° 0.3 mm 2 m/s 709 mmHg 82%
    14:00 +18°C° 0.7 mm 2 m/s 708 mmHg 84%
    15:00 +18°C° 0.7 mm 2 m/s 708 mmHg 86%
    16:00 +19°C° 0.7 mm 1 m/s 707 mmHg 88%
    17:00 +18°C° 0 mm 1 m/s 707 mmHg 89%
    18:00 +18°C° 0 mm 1 m/s 707 mmHg 91%
    19:00 +18°C° 0 mm 1 m/s 707 mmHg 92%
    20:00 +16°C° 0 mm 1 m/s 706 mmHg 92%
    21:00 +15°C° 0 mm 1 m/s 706 mmHg 93%
    22:00 +14°C° 0 mm 1 m/s 706 mmHg 93%
    23:00 +13°C° 0 mm 1 m/s 706 mmHg 92%

    28 Mai, Mardi

    Heure Température Précipitation Vent Pression Humidité
    00:00 +13°C° 0 mm 1 m/s 705 mmHg 92%
    01:00 +13°C° 0 mm 1 m/s 705 mmHg 91%
    02:00 +13°C° 0 mm 1 m/s 705 mmHg 91%
    03:00 +13°C° 0 mm 1 m/s 704 mmHg 90%
    04:00 +14°C° 0 mm 1 m/s 704 mmHg 90%
    05:00 +15°C° 0.1 mm 2 m/s 704 mmHg 89%
    06:00 +15°C° 0.1 mm 2 m/s 704 mmHg 88%
    07:00 +16°C° 0.1 mm 3 m/s 704 mmHg 88%
    08:00 +17°C° 0.2 mm 3 m/s 704 mmHg 85%
    09:00 +17°C° 0.2 mm 4 m/s 704 mmHg 82%
    10:00 +18°C° 0.2 mm 4 m/s 704 mmHg 80%
    11:00 +18°C° 0.3 mm 4 m/s 704 mmHg 80%
    12:00 +17°C° 0.3 mm 5 m/s 704 mmHg 81%
    13:00 +17°C° 0.3 mm 5 m/s 704 mmHg 81%
    14:00 +17°C° 0.1 mm 5 m/s 704 mmHg 80%
    15:00 +17°C° 0.1 mm 5 m/s 703 mmHg 78%
    16:00 +17°C° 0.1 mm 5 m/s 703 mmHg 77%
    17:00 +17°C° 0 mm 4 m/s 703 mmHg 81%
    18:00 +17°C° 0 mm 4 m/s 703 mmHg 85%
    19:00 +16°C° 0 mm 3 m/s 703 mmHg 88%
    20:00 +14°C° 0 mm 3 m/s 703 mmHg 91%
    21:00 +14°C° 0 mm 3 m/s 704 mmHg 93%
    22:00 +13°C° 0 mm 3 m/s 704 mmHg 95%
    23:00 +13°C° 0.1 mm 3 m/s 704 mmHg 96%

    29 Mai, Mercredi

    Heure Température Précipitation Vent Pression Humidité
    00:00 +13°C° 0.1 mm 3 m/s 704 mmHg 96%
    01:00 +13°C° 0.1 mm 3 m/s 704 mmHg 96%
    02:00 +13°C° 0.2 mm 3 m/s 704 mmHg 96%
    03:00 +13°C° 0.2 mm 3 m/s 704 mmHg 96%
    04:00 +13°C° 0.2 mm 3 m/s 704 mmHg 96%
    05:00 +14°C° 0.1 mm 3 m/s 704 mmHg 94%
    06:00 +14°C° 0.1 mm 3 m/s 705 mmHg 92%
    07:00 +16°C° 0.1 mm 3 m/s 705 mmHg 90%
    08:00 +15°C° 0.1 mm 4 m/s 705 mmHg 87%
    09:00 +16°C° 0.1 mm 5 m/s 706 mmHg 84%
    10:00 +16°C° 0.1 mm 6 m/s 706 mmHg 81%
    11:00 +16°C° 0.1 mm 5 m/s 706 mmHg 82%
    12:00 +15°C° 0.1 mm 5 m/s 707 mmHg 84%
    13:00 +14°C° 0.1 mm 4 m/s 707 mmHg 86%
    14:00 +15°C° 0.3 mm 4 m/s 707 mmHg 84%
    15:00 +15°C° 0.3 mm 4 m/s 708 mmHg 82%
    16:00 +15°C° 0.3 mm 4 m/s 708 mmHg 79%
    17:00 +14°C° 0.3 mm 3 m/s 709 mmHg 84%
    18:00 +14°C° 0.3 mm 2 m/s 709 mmHg 88%
    19:00 +13°C° 0.3 mm 1 m/s 709 mmHg 93%
    20:00 +13°C° 0.1 mm 1 m/s 709 mmHg 94%
    21:00 +12°C° 0.1 mm 1 m/s 710 mmHg 96%
    22:00 +10°C° 0.1 mm 0 m/s 710 mmHg 97%
    23:00 +11°C° 0 mm 1 m/s 710 mmHg 97%

    30 Mai, Jeudi

    Heure Température Précipitation Vent Pression Humidité
    00:00 +11°C° 0 mm 1 m/s 711 mmHg 98%
    01:00 +11°C° 0 mm 1 m/s 711 mmHg 98%
    02:00 +11°C° 0 mm 1 m/s 711 mmHg 98%
    03:00 +11°C° 0 mm 1 m/s 711 mmHg 98%
    04:00 +11°C° 0 mm 1 m/s 711 mmHg 98%
    05:00 +10°C° 0.1 mm 2 m/s 712 mmHg 97%
    06:00 +10°C° 0.1 mm 2 m/s 712 mmHg 96%
    07:00 +12°C° 0.1 mm 2 m/s 712 mmHg 96%
    08:00 +12°C° 0.1 mm 2 m/s 712 mmHg 90%
    09:00 +13°C° 0.1 mm 2 m/s 713 mmHg 85%
    10:00 +13°C° 0.1 mm 3 m/s 713 mmHg 80%
    11:00 +13°C° 0.1 mm 3 m/s 713 mmHg 78%
    12:00 +13°C° 0.1 mm 3 m/s 713 mmHg 77%
    13:00 +14°C° 0.1 mm 3 m/s 713 mmHg 75%
    14:00 +14°C° 0 mm 3 m/s 713 mmHg 74%
    15:00 +13°C° 0 mm 3 m/s 713 mmHg 74%
    16:00 +13°C° 0 mm 3 m/s 713 mmHg 73%
    17:00 +12°C° 0 mm 3 m/s 713 mmHg 78%
    18:00 +12°C° 0 mm 2 m/s 713 mmHg 83%
    19:00 +10°C° 0 mm 2 m/s 713 mmHg 88%
    20:00 +9°C° 0 mm 2 m/s 713 mmHg 91%
    21:00 +8°C° 0 mm 2 m/s 713 mmHg 95%
    22:00 +7°C° 0 mm 2 m/s 713 mmHg 98%
    23:00 +8°C° 0 mm 2 m/s 713 mmHg 97%
    Voir plus